Regional Weather Roundup
Issued by NWS

Home | Current Version | Previous Version | Graphics & Text | Print | Product List | Glossary On
Versions: 1 2 3 4 5 6 7 8 9 10 11 12 13 14 15 16 17 18 19 20 21 22 23 24 25 26 27 28 29 30 31 32 33 34 35 36 37 38 39 40 41 42 43 44 45 46 47 48 49 50
000
ASUS43 KTOP 260008
RWRKS

WEATHER ROUNDUP FOR KANSAS
NATIONAL WEATHER SERVICE GOODLAND KS
700 PM CDT MON MAY 25 2015

NOTE:  "FAIR" INDICATES FEW OR NO CLOUDS BELOW 12,000 FEET WITH NO
SIGNIFICANT WEATHER AND/OR OBSTRUCTIONS TO VISIBILITY.

KSZ001>006-013>018-027>032-041>047-260100-
NORTHWEST KANSAS

CITY           SKY/WX    TMP DP  RH WIND       PRES   REMARKS
GOODLAND       SUNNY     68  46  45 NW14      29.86R
6HR MIN TEMP:  64; 6HR MAX TEMP:  70;

HAYS           CLOUDY    73  57  56 SW3       29.75F
HILL CITY      PTSUNNY   73  52  47 W12       29.77S
6HR MIN TEMP:  70; 6HR MAX TEMP:  78;

RUSSELL        CLOUDY    73  60  63 CALM      29.75F
6HR MIN TEMP:  69; 6HR MAX TEMP:  77;

$$

KSZ061>065-074>080-084>089-260100-
SOUTHWEST KANSAS

CITY           SKY/WX    TMP DP  RH WIND       PRES   REMARKS
DODGE CITY     CLOUDY    73  55  53 SW10      29.77F
6HR MIN TEMP:  68; 6HR MAX TEMP:  76;

ELKHART          N/A     73  49  42 S5          N/A
GARDEN CITY    CLOUDY    71  53  52 SW9       29.77F
6HR MIN TEMP:  68; 6HR MAX TEMP:  74;

GREAT BEND     CLOUDY    72  63  73 NW8       29.74F
LIBERAL        CLOUDY    73  50  43 S15       29.80F
PRATT          CLOUDY    70  55  60 SW10      29.77S
$$

KSZ066>073-081>083-090>101-260100-
SOUTHEAST KANSAS

CITY           SKY/WX    TMP DP  RH WIND       PRES   REMARKS
CHANUTE        CLOUDY    75  68  78 SE9       29.80F
6HR MIN TEMP:  74; 6HR MAX TEMP:  81;

COFFEYVILLE    CLOUDY    74  69  85 S7        29.82R
6HR MIN TEMP:  74; 6HR MAX TEMP:  81;

HUTCHINSON     CLOUDY    74  59  59 S9        29.76F
6HR MIN TEMP:  64; 6HR MAX TEMP:  84; 6HR PCP:  0.29;

MEDICINE LODGE   N/A     73  54  51 S7        29.78R
NEWTON         CLOUDY    70  59  68 S10       29.80R
PARSONS        CLOUDY    75  69  81 SE7       29.82F
6HR MIN TEMP:  75; 6HR MAX TEMP:  81;

WICHITA INTL   TSTM      65  59  81 SW6       29.83R
6HR MIN TEMP:  63; 6HR MAX TEMP:  80; 6HR PCP:  0.14;

WICHITA JABRA  TSTM      65  56  72 SW20G28   29.81R
6HR MIN TEMP:  66; 6HR MAX TEMP:  79; 6HR PCP: TRACE;

WICHITA MCCONL TSTM      64  57  77 SW10G29   29.82R
WINFIELD       CLOUDY    73  65  75 S8        29.80S
6HR MIN TEMP:  73; 6HR MAX TEMP:  80;

$$

KSZ007>012-019>026-033>040-048>060-102>105-260100-
NORTHEAST KANSAS

CITY           SKY/WX    TMP DP  RH WIND       PRES   REMARKS
CONCORDIA      CLOUDY    62  56  80 S8        29.77F
6HR MIN TEMP:  62; 6HR MAX TEMP:  78; 6HR PCP:  0.11;

EMPORIA        CLOUDY    76  65  68 S15G22    29.78F
6HR MIN TEMP:  75; 6HR MAX TEMP:  81;

LAWRENCE       CLOUDY    78  64  61 S15       29.79S
6HR MIN TEMP:  74; 6HR MAX TEMP:  82;

MANHATTAN      LGT RAIN  65  59  81 N7        29.78F
6HR MIN TEMP:  65; 6HR MAX TEMP:  82; 6HR PCP:  0.05;

OLATHE IND     CLOUDY    77  64  64 S10       29.83R
6HR MIN TEMP:  73; 6HR MAX TEMP:  81;

OLATHE EXE     CLOUDY    76  65  68 S10       29.82R
6HR MIN TEMP:  73; 6HR MAX TEMP:  80;

SALINA         LGT RAIN  66  54  65 SE15      29.76F
6HR MIN TEMP:  62; 6HR MAX TEMP:  80; 6HR PCP:  0.25;

TOPEKA BILLARD CLOUDY    79  65  62 S12       29.78F
6HR MIN TEMP:  74; 6HR MAX TEMP:  81;

TOPEKA FORBES  CLOUDY    79  65  62 S13       29.78F
6HR MIN TEMP:  74; 6HR MAX TEMP:  82;

$$



USA.gov is the U.S. government's official web portal to all federal, state and local government web resources and services.